Location: Prescott
(34.5400°N, 112.4680°W)
Time: 00:49:33
(UTC-07:00)

Tiangong 2 - Visible Passes

Search period start: 23 July 2018 00:00
Search period end: 02 August 2018 00:00
Orbit: 386 x 394 km, 42.8° (Epoch: 22 July)

Date Brightness Start Highest point End Pass type
(mag) Time Alt. Az. Time Alt. Az. Time Alt. Az.
23 Jul 2.0 20:29:19 10° NW 20:32:23 42° NNE 20:34:52 14° E visible
23 Jul 3.9 22:06:25 10° W 22:07:11 15° W 22:07:11 15° W visible
24 Jul 1.4 21:08:25 10° WNW 21:11:32 51° SSW 21:12:00 46° S visible
25 Jul 1.1 20:10:38 10° WNW 20:13:50 82° NNE 20:16:51 11° ESE visible
25 Jul 4.0 21:48:54 10° WSW 21:49:11 11° WSW 21:49:11 11° WSW visible
26 Jul 2.8 20:50:10 10° W 20:52:47 23° SW 20:54:06 18° S visible
28 Jul 3.8 20:32:56 10° WSW 20:33:55 11° SW 20:34:55 10° SSW visible
